Regional Weather Roundup
Issued by NWS

Home | Current Version | Previous Version | Text Only | Print | Product List | Glossary On
Versions: 1 2 3 4 5 6 7 8 9 10 11 12 13 14 15 16 17 18 19 20 21 22 23 24 25 26 27 28
000
ASUS44 KJAN 220410
RWRMS

MISSISSIPPI HOURLY WEATHER ROUNDUP
NATIONAL WEATHER SERVICE JACKSON MS
1000 PM CST TUE FEB 21 2017

NOTE: "FAIR: INDICATES FEW OR NO CLOUDS BELOW 12,000 FEET WITH NO
SIGNIFICANT WEATHER AND/OR OBSTRUCTIONS TO VISIBILITY.

MSZ001>002-007>008-010>013-018>021-025>028-034>036-220500-
NORTHWEST MISSISSIPPI

CITY           SKY/WX    TMP DP  RH WIND       PRES   REMARKS
BATESVILLE     MOCLDY    58  57  97 CALM      29.89S FOG
CLEVELAND      FAIR      55  55 100 CALM      29.87S
GREENWOOD      CLEAR     56  53  90 E5        29.87S
GREENVILLE     CLEAR     52  51  97 CALM      29.87R
OXFORD         FAIR      57  55  94 E3        29.90S
TUNICA         CLOUDY    59  59 100 E6        29.88F
WINONA         CLOUDY    58  58 100 CALM      29.86F
$$

MSZ003>006-009-014>017-022>024-029>033-037>039-220500-
NORTHEAST MISSISSIPPI

CITY           SKY/WX    TMP DP  RH WIND       PRES   REMARKS
COLUMBUS AFB   LGT RAIN  59  59 100 E3        29.87F
CORINTH        CLOUDY    59  57  94 NE5       29.89F
GOLDN TRIANGLE CLOUDY    61  55  82 SE7       29.84S
TUPELO         CLOUDY    60  57  89 E5        29.88F
$$

MSZ040-058-220500-
CENTRAL MISSISSIPPI

CITY           SKY/WX    TMP DP  RH WIND       PRES   REMARKS
JACKSON INTL   MOCLDY    56  54  93 CALM      29.86S
JACKSON HAWKNS CLEAR     56  53  90 CALM      29.87S
MADISON        FAIR     N/A N/A N/A CALM      29.87S
MERIDIAN KEY   CLOUDY    58  58 100 SW3       29.87F
MERIDIAN NAS   PTCLDY    60  57  89 CALM      29.87F
VICKSBURG VKS  CLOUDY    57  55  94 CALM      29.85S
$$

MSZ059>079-220500-
SOUTH MISSISSIPPI

CITY           SKY/WX    TMP DP  RH WIND       PRES   REMARKS
BROOKHAVEN     FAIR     N/A N/A N/A CALM      29.88S
COLUMBIA       FAIR      54 N/A N/A CALM      29.89F HAZE
HATTIESBURG    CLEAR     55  54  96 CALM      29.88S
LAUREL           N/A     54  54 100 CALM      29.88R VSB 3/4
MCCOMB         CLEAR     56  51  84 CALM      29.87S
NATCHEZ        CLOUDY    57  54  88 CALM      29.87F
PINE BELT      CLEAR     54  48  82 CALM      29.89S
$$

MSZ080>082-220500-
COASTAL MISSISSIPPI

CITY           SKY/WX    TMP DP  RH WIND       PRES   REMARKS
BILOXI         PTCLDY    59  58  97 CALM      29.85S
PASCAGOULA     MOCLDY    55  53  93 CALM      29.85F FOG
GULFPORT       MOCLDY    60  59  96 CALM      29.85F
$$

LAZ007>009-015>016-023>026-220500-
NORTHEAST LOUISIANA

CITY           SKY/WX    TMP DP  RH WIND       PRES   REMARKS
BASTROP        CLOUDY    56  56  98 CALM      29.87S
TALLULAH/VBURG MOCLDY    56  54  93 CALM      29.87S
VIDALIA        CLOUDY    59  58  95 SW5       29.87S
$$




USA.gov is the U.S. government's official web portal to all federal, state and local government web resources and services.